When you browse on this site, cookies collect data to enhance your experience and personalize the content and advertising you see.
Visit our Privacy Policy to learn more. By continuing to use the site, you agree to this use of cookies and data.
  • In United Kingdom
  • List of Countries
  • For 7 days
  • Water Temperature
  • Satellite Maps
  • Weather Map
  • Weather Widgets
  • user-avatar
    Login

    Hourly Weather Ngo

    Today, 18 April, Thursday

    Time Temperature Precipitation Wind Pressure Humidity
    00:00 +26°C° 0.3 mm 1 mps 708 mmHg 79%
    01:00 +26°C° 0 mm 1 mps 708 mmHg 81%
    02:00 +26°C° 0.1 mm 1 mps 708 mmHg 83%
    03:00 +25°C° 0.1 mm 2 mps 708 mmHg 84%
    04:00 +25°C° 0.1 mm 2 mps 708 mmHg 85%
    05:00 +25°C° 0 mm 2 mps 708 mmHg 84%
    06:00 +26°C° 0 mm 2 mps 709 mmHg 83%
    07:00 +26°C° 0 mm 2 mps 709 mmHg 81%
    08:00 +28°C° 0.7 mm 2 mps 709 mmHg 73%
    09:00 +30°C° 0.7 mm 2 mps 709 mmHg 65%
    10:00 +32°C° 0.7 mm 2 mps 710 mmHg 57%
    11:00 +34°C° 0.2 mm 2 mps 709 mmHg 53%
    12:00 +35°C° 0.2 mm 2 mps 709 mmHg 49%
    13:00 +36°C° 0.2 mm 2 mps 708 mmHg 44%
    14:00 +36°C° 0 mm 2 mps 708 mmHg 48%
    15:00 +34°C° 0 mm 1 mps 707 mmHg 51%
    16:00 +33°C° 0 mm 1 mps 707 mmHg 55%
    17:00 +32°C° 0.1 mm 1 mps 707 mmHg 59%
    18:00 +30°C° 0.1 mm 1 mps 707 mmHg 64%
    19:00 +29°C° 0.1 mm 1 mps 707 mmHg 68%
    20:00 +28°C° 0 mm 1 mps 707 mmHg 70%
    21:00 +28°C° 0 mm 2 mps 707 mmHg 72%
    22:00 +27°C° 0 mm 2 mps 707 mmHg 74%
    23:00 +27°C° 0.1 mm 2 mps 708 mmHg 74%

    Tomorrow, 19 April, Friday

    Time Temperature Precipitation Wind Pressure Humidity
    00:00 +27°C° 0.1 mm 2 mps 708 mmHg 75%
    01:00 +26°C° 0.1 mm 2 mps 708 mmHg 76%
    02:00 +26°C° 0.6 mm 2 mps 708 mmHg 80%
    03:00 +25°C° 0.6 mm 2 mps 708 mmHg 84%
    04:00 +25°C° 0.6 mm 2 mps 708 mmHg 88%
    05:00 +25°C° 1.5 mm 2 mps 708 mmHg 88%
    06:00 +25°C° 1.5 mm 1 mps 709 mmHg 89%
    07:00 +25°C° 1.5 mm 1 mps 710 mmHg 89%
    08:00 +26°C° 2.3 mm 2 mps 710 mmHg 84%
    09:00 +28°C° 2.3 mm 2 mps 711 mmHg 79%
    10:00 +29°C° 2.3 mm 2 mps 711 mmHg 74%
    11:00 +30°C° 0.4 mm 2 mps 711 mmHg 69%
    12:00 +31°C° 0.4 mm 1 mps 710 mmHg 64%
    13:00 +31°C° 0.4 mm 1 mps 709 mmHg 59%
    14:00 +31°C° 0 mm 1 mps 709 mmHg 59%
    15:00 +31°C° 0 mm 1 mps 708 mmHg 58%
    16:00 +29°C° 0 mm 0 mps 708 mmHg 58%
    17:00 +28°C° 0 mm 0 mps 708 mmHg 62%
    18:00 +27°C° 0 mm 0 mps 708 mmHg 66%
    19:00 +26°C° 0 mm 0 mps 708 mmHg 70%
    20:00 +27°C° 0 mm 1 mps 708 mmHg 72%
    21:00 +27°C° 0 mm 1 mps 708 mmHg 75%
    22:00 +26°C° 0 mm 1 mps 708 mmHg 77%
    23:00 +26°C° 0 mm 2 mps 708 mmHg 79%

    Day after tomorrow, 20 April, Saturday

    Time Temperature Precipitation Wind Pressure Humidity
    00:00 +25°C° 0 mm 2 mps 708 mmHg 81%
    01:00 +25°C° 0 mm 2 mps 708 mmHg 83%
    02:00 +25°C° 0.1 mm 2 mps 708 mmHg 84%
    03:00 +25°C° 0.1 mm 2 mps 708 mmHg 86%
    04:00 +24°C° 0.1 mm 1 mps 708 mmHg 87%
    05:00 +25°C° 0 mm 2 mps 708 mmHg 86%
    06:00 +25°C° 0 mm 2 mps 709 mmHg 85%
    07:00 +25°C° 0 mm 3 mps 709 mmHg 84%
    08:00 +27°C° 0 mm 2 mps 710 mmHg 76%
    09:00 +29°C° 0 mm 2 mps 710 mmHg 69%
    10:00 +31°C° 0 mm 2 mps 711 mmHg 61%
    11:00 +33°C° 0 mm 1 mps 710 mmHg 55%
    12:00 +35°C° 0 mm 1 mps 710 mmHg 49%
    13:00 +37°C° 0 mm 1 mps 709 mmHg 42%
    14:00 +36°C° 0.4 mm 2 mps 709 mmHg 50%
    15:00 +33°C° 0.4 mm 3 mps 708 mmHg 57%
    16:00 +30°C° 0.4 mm 4 mps 707 mmHg 64%
    17:00 +29°C° 0.5 mm 3 mps 707 mmHg 71%
    18:00 +27°C° 0.5 mm 3 mps 707 mmHg 78%
    19:00 +26°C° 0.5 mm 3 mps 707 mmHg 86%
    20:00 +26°C° 0.1 mm 2 mps 708 mmHg 86%
    21:00 +26°C° 0.1 mm 2 mps 708 mmHg 87%
    22:00 +25°C° 0.1 mm 1 mps 709 mmHg 88%
    23:00 +25°C° 0 mm 2 mps 709 mmHg 87%

    21 April, Sunday

    Time Temperature Precipitation Wind Pressure Humidity
    00:00 +25°C° 0 mm 2 mps 708 mmHg 86%
    01:00 +25°C° 0 mm 2 mps 708 mmHg 85%
    02:00 +25°C° 0 mm 2 mps 708 mmHg 85%
    03:00 +25°C° 0 mm 2 mps 707 mmHg 85%
    04:00 +25°C° 0 mm 1 mps 707 mmHg 85%
    05:00 +25°C° 0.1 mm 1 mps 708 mmHg 84%
    06:00 +26°C° 0.1 mm 1 mps 708 mmHg 83%
    07:00 +24°C° 0.1 mm 0 mps 709 mmHg 81%
    08:00 +28°C° 0.9 mm 1 mps 710 mmHg 74%
    09:00 +30°C° 0.9 mm 1 mps 710 mmHg 66%
    10:00 +32°C° 0.9 mm 1 mps 710 mmHg 58%
    11:00 +34°C° 0.1 mm 1 mps 710 mmHg 53%
    12:00 +35°C° 0.1 mm 1 mps 709 mmHg 48%
    13:00 +34°C° 0.1 mm 0 mps 708 mmHg 43%
    14:00 +34°C° 0 mm 0 mps 707 mmHg 45%
    15:00 +33°C° 0 mm 0 mps 707 mmHg 46%
    16:00 +32°C° 0 mm 0 mps 706 mmHg 48%
    17:00 +30°C° 0 mm 0 mps 707 mmHg 52%
    18:00 +29°C° 0 mm 0 mps 707 mmHg 56%
    19:00 +29°C° 0 mm 1 mps 707 mmHg 60%
    20:00 +29°C° 0 mm 1 mps 707 mmHg 62%
    21:00 +28°C° 0 mm 1 mps 708 mmHg 64%
    22:00 +28°C° 0 mm 1 mps 708 mmHg 66%
    23:00 +27°C° 0 mm 1 mps 707 mmHg 67%

    22 April, Monday

    Time Temperature Precipitation Wind Pressure Humidity
    00:00 +27°C° 0 mm 1 mps 707 mmHg 68%
    01:00 +27°C° 0 mm 1 mps 706 mmHg 70%
    02:00 +26°C° 0 mm 1 mps 706 mmHg 71%
    03:00 +26°C° 0 mm 1 mps 706 mmHg 72%
    04:00 +26°C° 0 mm 1 mps 706 mmHg 73%
    05:00 +26°C° 0 mm 1 mps 707 mmHg 74%
    06:00 +26°C° 0 mm 1 mps 707 mmHg 75%
    07:00 +26°C° 0 mm 1 mps 708 mmHg 76%
    08:00 +29°C° 0 mm 1 mps 708 mmHg 68%
    09:00 +31°C° 0 mm 1 mps 709 mmHg 60%
    10:00 +34°C° 0 mm 1 mps 709 mmHg 52%
    11:00 +34°C° 0 mm 1 mps 708 mmHg 48%
    12:00 +35°C° 0 mm 1 mps 708 mmHg 44%
    13:00 +36°C° 0 mm 1 mps 707 mmHg 41%
    14:00 +36°C° 0 mm 1 mps 706 mmHg 43%
    15:00 +35°C° 0 mm 1 mps 706 mmHg 46%
    16:00 +34°C° 0 mm 1 mps 705 mmHg 48%
    17:00 +33°C° 0 mm 1 mps 706 mmHg 52%
    18:00 +32°C° 0 mm 1 mps 706 mmHg 56%
    19:00 +31°C° 0 mm 1 mps 706 mmHg 60%
    20:00 +30°C° 0.2 mm 2 mps 707 mmHg 64%
    21:00 +29°C° 0.2 mm 2 mps 707 mmHg 68%
    22:00 +28°C° 0.2 mm 2 mps 707 mmHg 72%
    23:00 +28°C° 1.5 mm 2 mps 707 mmHg 77%

    23 April, Tuesday

    Time Temperature Precipitation Wind Pressure Humidity
    00:00 +27°C° 1.5 mm 2 mps 707 mmHg 82%
    01:00 +26°C° 1.5 mm 2 mps 706 mmHg 86%
    02:00 +26°C° 0 mm 2 mps 706 mmHg 86%
    03:00 +26°C° 0 mm 2 mps 706 mmHg 86%
    04:00 +25°C° 0 mm 2 mps 706 mmHg 86%
    05:00 +26°C° 0 mm 2 mps 707 mmHg 86%
    06:00 +26°C° 0 mm 3 mps 707 mmHg 85%
    07:00 +26°C° 0 mm 3 mps 708 mmHg 84%
    08:00 +28°C° 0.3 mm 3 mps 708 mmHg 77%
    09:00 +30°C° 0.3 mm 3 mps 709 mmHg 69%
    10:00 +33°C° 0.3 mm 3 mps 709 mmHg 62%
    11:00 +34°C° 0.1 mm 3 mps 708 mmHg 55%
    12:00 +36°C° 0.1 mm 2 mps 708 mmHg 49%
    13:00 +37°C° 0.1 mm 2 mps 707 mmHg 43%
    14:00 +37°C° 0 mm 2 mps 707 mmHg 43%
    15:00 +37°C° 0 mm 2 mps 706 mmHg 44%
    16:00 +36°C° 0 mm 2 mps 706 mmHg 45%
    17:00 +35°C° 0 mm 2 mps 706 mmHg 49%
    18:00 +32°C° 0 mm 1 mps 706 mmHg 54%
    19:00 +30°C° 0 mm 1 mps 706 mmHg 58%
    20:00 +30°C° 0 mm 1 mps 707 mmHg 59%
    21:00 +29°C° 0 mm 1 mps 707 mmHg 59%
    22:00 +29°C° 0 mm 1 mps 707 mmHg 60%
    23:00 +28°C° 0 mm 1 mps 707 mmHg 65%
    Show more